Flag for Australia Weather past 2 weeks in Bendigo, Victoria, Australia

Now
69 °F

Mild.


Feels Like: 69 °F
Forecast: 55 / 78 °F
Wind: 17 mph from South

Location: Bendigo Airport Aws

Current Time: Feb 1, 2015 at 9:28:25 PM

Latest Report: Feb 1, 2015 at 7:00 PM


Visibility: N/A

Pressure: 29.86 "Hg

Humidity: 49%

Dew point: 49 °F

Location of BendigoLocation

Historic Weather in Bendigo — Graph

°F

Bendigo temperature yesterday

Maximum temperature yesterday: 76 °F (at 4:00 PM)
Minimum temperature yesterday: 51 °F (at 6:00 AM)
Average temperature yesterday: 63 °F

Past Weeks' High & Low Weather Summary

 TemperatureHumidityPressure
High96 °F (Jan 22, 6:00 PM)87% (Jan 18, 6:00 AM)30.06 "Hg (Jan 18, 6:00 AM)
Low45 °F (Jan 26, 7:00 AM)17% (Jan 24, 6:00 PM)29.56 "Hg (Jan 24, 6:00 PM)
Average67 °F52%29.84 "Hg
* Reported Jan 17 7:00 PM — Feb 1 7:00 PM, Bendigo, Weather by CustomWeather, © 2014

Note: Actual official high and low records may vary slightly from our data, if they occured in-between our weather recording intervals... More about our weather records

Advertising

Bendigo weather history for previous 24 hours

 ConditionsComfort  
Time TempWeatherWind HumidityBarometerVisibility
7:00 PM
Feb 1
69 °FMild.17 mph49%29.86 "HgN/A
6:00 PM69 °FPartly sunny.17 mph47%29.85 "HgN/A
4:00 PM71 °FMild.15 mph46%29.84 "HgN/A
3:00 PM72 °FOvercast.16 mph42%29.85 "HgN/A
1:00 PM72 °FMild.13 mph44%29.87 "HgN/A
12:00 PM69 °FPassing clouds.13 mph50%29.88 "HgN/A
10:00 AM64 °FMild.13 mph57%29.88 "HgN/A
9:00 AM61 °FCool.13 mph65%29.88 "HgN/A
7:00 AM52 °FCool.6 mph82%29.85 "HgN/A
6:00 AM53 °FCool.6 mph81%29.84 "HgN/A
4:00 AM56 °FCool.8 mph74%29.83 "HgN/A
3:00 AM57 °FCool.8 mph72%29.84 "HgN/A
1:00 AM58 °FCool.10 mph70%29.86 "HgN/A
12:00 AM58 °FCool.6 mph69%29.87 "HgN/A
10:00 PM
Jan 31
61 °FCool.15 mph64%29.87 "HgN/A
9:00 PM64 °FMild.15 mph58%29.85 "HgN/A
Weather by CustomWeather, © 2014

See weather overviewHow to use our weather pages